EIN680 EIDW-LSGG

Flight info

Callsign EIN680
Flight time 1h 53m
Altitude 37000
Route ENDEQ3J ENDEQ Q36 EPOXI/N0368F290 L15 KEPAD L151 KIDLI/N0423F370 L151 MID UL612 VEULE DCT PEKIM DCT PILUL/N0357F270 DCT PIMUP DCT PIXIS DCT PIBAT/N0334F230 DCT LUSAR
Aircraft A20N/M-SDE2E3FGHIRWXY/LB1

Departure

Time 2026-05-05 06:48
Airport Dublin Airport (EIDW)

Arrival

Time 2026-05-05 08:42
Airport Geneva International Airport (LSGG)
Time Latitude Longitude Altitude Speed Heading
2026-05-05 06:18 53.42324 -6.24263 250 ft 0 kts 316°
2026-05-05 06:37 53.42318 -6.24252 251 ft 2 kts 316°
2026-05-05 06:37 53.42311 -6.24240 251 ft 2 kts 316°
2026-05-05 06:37 53.42299 -6.24222 251 ft 2 kts 309°
2026-05-05 06:37 53.42293 -6.24198 251 ft 2 kts 279°
2026-05-05 06:38 53.42293 -6.24173 251 ft 2 kts 255°
2026-05-05 06:38 53.42297 -6.24156 251 ft 0 kts 238°
2026-05-05 06:38 53.42295 -6.24163 251 ft 4 kts 238°
2026-05-05 06:38 53.42279 -6.24201 251 ft 1 kts 235°
2026-05-05 06:39 53.42272 -6.24215 251 ft 1 kts 226°
2026-05-05 06:39 53.42270 -6.24219 251 ft 0 kts 226°
2026-05-05 06:40 53.42269 -6.24219 250 ft 0 kts 226°
2026-05-05 06:40 53.42256 -6.24242 250 ft 5 kts 224°
2026-05-05 06:41 53.42218 -6.24309 251 ft 10 kts 230°
2026-05-05 06:41 53.42205 -6.24446 250 ft 12 kts 276°
2026-05-05 06:41 53.42211 -6.24550 250 ft 13 kts 275°
2026-05-05 06:41 53.42237 -6.24760 251 ft 13 kts 313°
2026-05-05 06:42 53.42327 -6.24835 250 ft 14 kts 337°
2026-05-05 06:42 53.42390 -6.24880 251 ft 14 kts 338°
2026-05-05 06:42 53.42516 -6.24971 251 ft 14 kts 337°
2026-05-05 06:42 53.42604 -6.25035 251 ft 13 kts 336°
2026-05-05 06:43 53.42688 -6.25101 251 ft 12 kts 323°
2026-05-05 06:43 53.42753 -6.25208 250 ft 12 kts 330°
2026-05-05 06:43 53.42832 -6.25269 251 ft 12 kts 337°
2026-05-05 06:43 53.42916 -6.25329 251 ft 13 kts 336°
2026-05-05 06:44 53.42975 -6.25374 250 ft 14 kts 337°
2026-05-05 06:44 53.43071 -6.25443 251 ft 15 kts 336°
2026-05-05 06:44 53.43214 -6.25547 250 ft 17 kts 336°
2026-05-05 06:44 53.43327 -6.25629 251 ft 13 kts 337°
2026-05-05 06:45 53.43405 -6.25624 250 ft 13 kts 59°
2026-05-05 06:45 53.43401 -6.25456 250 ft 15 kts 95°
2026-05-05 06:45 53.43391 -6.25266 251 ft 16 kts 95°
2026-05-05 06:45 53.43381 -6.25058 250 ft 17 kts 95°
2026-05-05 06:46 53.43370 -6.24838 250 ft 19 kts 95°
2026-05-05 06:46 53.43359 -6.24653 250 ft 10 kts 91°
2026-05-05 06:46 53.43406 -6.24561 251 ft 12 kts
2026-05-05 06:46 53.43468 -6.24546 251 ft 14 kts
2026-05-05 06:47 53.43528 -6.24648 250 ft 0 kts 276°
2026-05-05 06:47 53.43533 -6.24733 250 ft 15 kts 275°
2026-05-05 06:47 53.43549 -6.25034 251 ft 61 kts 276°
2026-05-05 06:47 53.43647 -6.26792 251 ft 147 kts 275°
2026-05-05 06:48 53.43755 -6.28758 415 ft 179 kts 275°
2026-05-05 06:48 53.43876 -6.30970 813 ft 193 kts 275°
2026-05-05 06:48 53.43966 -6.32531 1082 ft 208 kts 280°
2026-05-05 06:48 53.45027 -6.35163 2079 ft 212 kts 334°
2026-05-05 06:49 53.45935 -6.35738 2660 ft 212 kts 347°
2026-05-05 06:49 53.47900 -6.35822 3606 ft 220 kts
2026-05-05 06:49 53.49415 -6.35432 4404 ft 223 kts
2026-05-05 06:49 53.50927 -6.34863 5183 ft 226 kts 27°
2026-05-05 06:50 53.51784 -6.33862 5700 ft 227 kts 47°
2026-05-05 06:50 53.52605 -6.31550 6366 ft 236 kts 76°
2026-05-05 06:50 53.52670 -6.27519 7067 ft 258 kts 94°
2026-05-05 06:50 53.52566 -6.24325 7755 ft 268 kts 93°
2026-05-05 06:51 53.52510 -6.22236 8259 ft 270 kts 92°
2026-05-05 06:51 53.52419 -6.17977 8878 ft 273 kts 92°
2026-05-05 06:51 53.52359 -6.14734 8992 ft 273 kts 92°
2026-05-05 06:51 53.52305 -6.11517 8995 ft 272 kts 91°
2026-05-05 06:52 53.52202 -6.08236 8996 ft 272 kts 96°
2026-05-05 06:52 53.51901 -6.04994 9053 ft 276 kts 102°
2026-05-05 06:52 53.51606 -6.02857 9367 ft 281 kts 103°
2026-05-05 06:52 53.50991 -5.98614 10528 ft 281 kts 104°
2026-05-05 06:53 53.50519 -5.95382 11003 ft 295 kts 103°
2026-05-05 06:53 53.50012 -5.91899 11448 ft 310 kts 103°
2026-05-05 06:53 53.49482 -5.88245 12163 ft 315 kts 103°
2026-05-05 06:53 53.48950 -5.84575 12932 ft 318 kts 103°
2026-05-05 06:54 53.48457 -5.80892 13662 ft 321 kts 102°
2026-05-05 06:54 53.47996 -5.77172 14369 ft 325 kts 101°
2026-05-05 06:54 53.47523 -5.73320 15079 ft 328 kts 101°
2026-05-05 06:54 53.47055 -5.69556 15750 ft 331 kts 101°
2026-05-05 06:55 53.46569 -5.65689 16419 ft 335 kts 102°
2026-05-05 06:55 53.46073 -5.61772 17078 ft 338 kts 102°
2026-05-05 06:55 53.45742 -5.59172 17504 ft 340 kts 102°
2026-05-05 06:55 53.45063 -5.53781 18357 ft 345 kts 100°
2026-05-05 06:56 53.44786 -5.51073 18767 ft 347 kts 98°
2026-05-05 06:56 53.44453 -5.45454 19586 ft 351 kts 92°
2026-05-05 06:56 53.44340 -5.41087 20197 ft 354 kts 92°
2026-05-05 06:56 53.44272 -5.38112 20602 ft 357 kts 91°
2026-05-05 06:57 53.44131 -5.32123 21391 ft 361 kts 92°
2026-05-05 06:57 53.44024 -5.27785 21938 ft 364 kts 92°
2026-05-05 06:57 53.43913 -5.23465 22467 ft 367 kts 92°
2026-05-05 06:57 53.43800 -5.19113 22984 ft 370 kts 92°
2026-05-05 06:58 53.43724 -5.16244 23315 ft 372 kts 92°
2026-05-05 06:58 53.43594 -5.11798 23815 ft 375 kts 93°
2026-05-05 06:58 53.43455 -5.07362 24297 ft 378 kts 93°
2026-05-05 06:58 53.43266 -5.01466 24914 ft 382 kts 93°
2026-05-05 06:59 53.43169 -4.98446 25220 ft 383 kts 93°
2026-05-05 06:59 53.42973 -4.92463 25805 ft 387 kts 93°
2026-05-05 06:59 53.42873 -4.89416 26093 ft 389 kts 93°
2026-05-05 06:59 53.42674 -4.83343 26647 ft 392 kts 93°
2026-05-05 07:00 53.42524 -4.78780 27047 ft 395 kts 93°
2026-05-05 07:00 53.42374 -4.74241 27433 ft 397 kts 93°
2026-05-05 07:00 53.42270 -4.71141 27690 ft 399 kts 93°
2026-05-05 07:00 53.42059 -4.64951 28191 ft 402 kts 93°
2026-05-05 07:01 53.41896 -4.60249 28559 ft 404 kts 93°
2026-05-05 07:01 53.41786 -4.57102 28801 ft 406 kts 93°
2026-05-05 07:01 53.41562 -4.50777 28988 ft 408 kts 93°
2026-05-05 07:02 53.41224 -4.41389 28995 ft 407 kts 93°
2026-05-05 07:02 53.40871 -4.31848 28996 ft 407 kts 94°
2026-05-05 07:03 53.40570 -4.23866 28996 ft 407 kts 94°
2026-05-05 07:03 53.40139 -4.12692 28996 ft 407 kts 94°
2026-05-05 07:04 53.39827 -4.04784 28997 ft 408 kts 94°
2026-05-05 07:04 53.39573 -3.98431 29000 ft 421 kts 94°
2026-05-05 07:04 53.39374 -3.93467 28997 ft 429 kts 94°
2026-05-05 07:05 53.38961 -3.83349 28996 ft 431 kts 94°
2026-05-05 07:05 53.38542 -3.73370 28996 ft 431 kts 94°
2026-05-05 07:06 53.37835 -3.65112 28996 ft 431 kts 103°
2026-05-05 07:06 53.35527 -3.54005 28997 ft 431 kts 112°
2026-05-05 07:07 53.32755 -3.45175 28996 ft 431 kts 123°
2026-05-05 07:07 53.29705 -3.38557 28998 ft 431 kts 130°
2026-05-05 07:08 53.25731 -3.31070 28997 ft 431 kts 132°
2026-05-05 07:08 53.21090 -3.22344 28996 ft 431 kts 131°
2026-05-05 07:09 53.17784 -3.16114 28996 ft 431 kts 131°
2026-05-05 07:09 53.13135 -3.07383 28996 ft 431 kts 131°
2026-05-05 07:10 53.09972 -3.01462 28996 ft 431 kts 131°
2026-05-05 07:10 53.05238 -2.92633 28996 ft 431 kts 131°
2026-05-05 07:11 53.01868 -2.86366 28996 ft 431 kts 131°
2026-05-05 07:11 52.97178 -2.77661 28997 ft 431 kts 131°
2026-05-05 07:12 52.93816 -2.71444 28997 ft 431 kts 131°
2026-05-05 07:12 52.89721 -2.63897 28997 ft 431 kts 131°
2026-05-05 07:13 52.85013 -2.55248 28997 ft 431 kts 131°
2026-05-05 07:13 52.80717 -2.48147 28996 ft 431 kts 139°
2026-05-05 07:14 52.76701 -2.43106 28997 ft 431 kts 145°
2026-05-05 07:14 52.71622 -2.37516 28997 ft 431 kts 146°
2026-05-05 07:15 52.66549 -2.31944 28997 ft 431 kts 146°
2026-05-05 07:15 52.61519 -2.26422 28997 ft 431 kts 146°
2026-05-05 07:16 52.55645 -2.19995 28997 ft 431 kts 146°
2026-05-05 07:16 52.50462 -2.14346 28997 ft 431 kts 146°
2026-05-05 07:17 52.46138 -2.09645 28997 ft 431 kts 146°
2026-05-05 07:17 52.40890 -2.03955 28997 ft 431 kts 146°
2026-05-05 07:18 52.35597 -1.98226 28997 ft 431 kts 146°
2026-05-05 07:18 52.30313 -1.92531 28997 ft 431 kts 146°
2026-05-05 07:19 52.25027 -1.86849 28997 ft 431 kts 146°
2026-05-05 07:19 52.19728 -1.81167 28997 ft 431 kts 146°
2026-05-05 07:20 52.14446 -1.75522 28997 ft 431 kts 146°
2026-05-05 07:20 52.08334 -1.69010 28996 ft 431 kts 146°
2026-05-05 07:21 52.03944 -1.64336 28996 ft 431 kts 146°
2026-05-05 07:21 51.98645 -1.58709 28996 ft 431 kts 146°
2026-05-05 07:22 51.93383 -1.53160 28996 ft 431 kts 146°
2026-05-05 07:22 51.88196 -1.47703 28996 ft 431 kts 146°
2026-05-05 07:23 51.83167 -1.42418 28996 ft 431 kts 146°
2026-05-05 07:23 51.78081 -1.37088 28996 ft 431 kts 146°
2026-05-05 07:24 51.73109 -1.31888 29380 ft 433 kts 147°
2026-05-05 07:24 51.70622 -1.29294 30142 ft 423 kts 147°
2026-05-05 07:24 51.68163 -1.26732 30768 ft 418 kts 147°
2026-05-05 07:24 51.65720 -1.24189 31261 ft 415 kts 147°
2026-05-05 07:25 51.63300 -1.21676 31678 ft 414 kts 147°
2026-05-05 07:25 51.60968 -1.19256 32045 ft 413 kts 147°
2026-05-05 07:25 51.57738 -1.15909 32539 ft 412 kts 147°
2026-05-05 07:25 51.55297 -1.13384 32899 ft 412 kts 147°
2026-05-05 07:26 51.53706 -1.11741 33129 ft 411 kts 147°
2026-05-05 07:26 51.51300 -1.09258 33466 ft 411 kts 147°
2026-05-05 07:26 51.48868 -1.06752 33794 ft 410 kts 147°
2026-05-05 07:26 51.46455 -1.04267 34111 ft 409 kts 147°
2026-05-05 07:27 51.44047 -1.01789 34417 ft 409 kts 147°
2026-05-05 07:27 51.41645 -0.99320 34712 ft 408 kts 147°
2026-05-05 07:27 51.39220 -0.96833 34999 ft 408 kts 147°
2026-05-05 07:27 51.36845 -0.94398 35264 ft 407 kts 147°
2026-05-05 07:28 51.34410 -0.91907 35498 ft 408 kts 147°
2026-05-05 07:28 51.31987 -0.89430 35702 ft 409 kts 147°
2026-05-05 07:28 51.28753 -0.86130 35959 ft 410 kts 147°
2026-05-05 07:28 51.27106 -0.84453 36089 ft 410 kts 147°
2026-05-05 07:29 51.24653 -0.81956 36285 ft 411 kts 147°
2026-05-05 07:29 51.22220 -0.79483 36433 ft 413 kts 147°
2026-05-05 07:29 51.19736 -0.76962 36519 ft 416 kts 147°
2026-05-05 07:30 51.13862 -0.71011 36715 ft 423 kts 147°
2026-05-05 07:30 51.09609 -0.66715 36849 ft 427 kts 147°
2026-05-05 07:30 51.07068 -0.64153 36926 ft 430 kts 147°
2026-05-05 07:31 51.01987 -0.58886 36992 ft 432 kts 146°
2026-05-05 07:31 50.96995 -0.53518 36995 ft 432 kts 145°
2026-05-05 07:32 50.91127 -0.47249 36996 ft 432 kts 146°
2026-05-05 07:32 50.86995 -0.42858 36996 ft 432 kts 146°
2026-05-05 07:33 50.81983 -0.37550 36996 ft 432 kts 146°
2026-05-05 07:33 50.77000 -0.32288 36996 ft 432 kts 146°
2026-05-05 07:34 50.71189 -0.26170 36996 ft 432 kts 146°
2026-05-05 07:34 50.67022 -0.21789 36996 ft 432 kts 146°
2026-05-05 07:35 50.62031 -0.16556 36996 ft 432 kts 146°
2026-05-05 07:35 50.57042 -0.11341 36996 ft 432 kts 146°
2026-05-05 07:36 50.52045 -0.06132 36996 ft 432 kts 146°
2026-05-05 07:36 50.47036 -0.00926 36996 ft 432 kts 146°
2026-05-05 07:37 50.42057 0.04238 36996 ft 432 kts 146°
2026-05-05 07:37 50.37059 0.09409 36996 ft 432 kts 146°
2026-05-05 07:38 50.32044 0.14587 36996 ft 432 kts 146°
2026-05-05 07:38 50.27043 0.19734 36996 ft 432 kts 146°
2026-05-05 07:39 50.22031 0.24879 36996 ft 432 kts 146°
2026-05-05 07:39 50.17028 0.30018 36996 ft 432 kts 146°
2026-05-05 07:40 50.12033 0.35156 36996 ft 432 kts 146°
2026-05-05 07:40 50.07026 0.40290 36996 ft 432 kts 146°
2026-05-05 07:41 50.02003 0.45424 36996 ft 432 kts 146°
2026-05-05 07:41 49.96987 0.50538 36996 ft 432 kts 146°
2026-05-05 07:42 49.91980 0.55629 36996 ft 432 kts 146°
2026-05-05 07:42 49.86987 0.60848 36995 ft 432 kts 143°
2026-05-05 07:43 49.82381 0.66795 36996 ft 432 kts 137°
2026-05-05 07:43 49.78035 0.73134 36996 ft 432 kts 137°
2026-05-05 07:44 49.73659 0.79493 36996 ft 432 kts 137°
2026-05-05 07:44 49.69282 0.85832 36996 ft 432 kts 137°
2026-05-05 07:45 49.64908 0.92151 36996 ft 432 kts 137°
2026-05-05 07:45 49.59800 0.99507 36996 ft 432 kts 137°
2026-05-05 07:46 49.56153 1.04745 36996 ft 432 kts 137°
2026-05-05 07:46 49.51763 1.11036 36996 ft 432 kts 137°
2026-05-05 07:47 49.46658 1.18331 36996 ft 432 kts 137°
2026-05-05 07:47 49.42997 1.23549 36996 ft 432 kts 137°
2026-05-05 07:48 49.38606 1.29793 36996 ft 432 kts 137°
2026-05-05 07:48 49.34209 1.36030 36996 ft 432 kts 137°
2026-05-05 07:49 49.29060 1.43313 36996 ft 432 kts 137°
2026-05-05 07:49 49.25382 1.48503 36996 ft 432 kts 137°
2026-05-05 07:50 49.20970 1.54712 36996 ft 432 kts 137°
2026-05-05 07:50 49.16553 1.60913 36996 ft 432 kts 137°
2026-05-05 07:51 49.12149 1.67081 36996 ft 432 kts 137°
2026-05-05 07:51 49.07733 1.73250 36996 ft 432 kts 137°
2026-05-05 07:52 49.03298 1.79429 36996 ft 432 kts 137°
2026-05-05 07:52 48.98873 1.85579 36996 ft 432 kts 137°
2026-05-05 07:53 48.94430 1.91739 36996 ft 432 kts 137°
2026-05-05 07:53 48.89271 1.98872 36996 ft 432 kts 137°
2026-05-05 07:54 48.85547 2.04008 36996 ft 432 kts 137°
2026-05-05 07:54 48.81117 2.10102 36996 ft 432 kts 137°
2026-05-05 07:55 48.76673 2.16201 36996 ft 432 kts 137°
2026-05-05 07:55 48.72197 2.22330 36996 ft 432 kts 137°
2026-05-05 07:56 48.67753 2.28400 36996 ft 432 kts 137°
2026-05-05 07:56 48.63296 2.34471 36996 ft 432 kts 137°
2026-05-05 07:57 48.58861 2.40498 36996 ft 432 kts 137°
2026-05-05 07:57 48.53657 2.47552 36996 ft 432 kts 137°
2026-05-05 07:58 48.49921 2.52603 36995 ft 432 kts 137°
2026-05-05 07:58 48.45467 2.58612 36995 ft 432 kts 137°
2026-05-05 07:59 48.41004 2.64617 36995 ft 432 kts 137°
2026-05-05 07:59 48.36519 2.70638 36995 ft 432 kts 138°
2026-05-05 08:00 48.32038 2.76636 36995 ft 432 kts 138°
2026-05-05 08:00 48.27541 2.82581 36995 ft 432 kts 140°
2026-05-05 08:01 48.22813 2.88123 36995 ft 432 kts 142°
2026-05-05 08:01 48.18047 2.93635 36995 ft 432 kts 142°
2026-05-05 08:02 48.13308 2.99104 36995 ft 432 kts 143°
2026-05-05 08:02 48.08332 3.04127 36995 ft 432 kts 149°
2026-05-05 08:03 48.02996 3.08213 36995 ft 432 kts 156°
2026-05-05 08:03 47.97477 3.11683 36996 ft 432 kts 157°
2026-05-05 08:04 47.94670 3.13445 36856 ft 434 kts 157°
2026-05-05 08:04 47.91891 3.15190 36608 ft 433 kts 157°
2026-05-05 08:04 47.89117 3.16930 36365 ft 433 kts 157°
2026-05-05 08:04 47.86350 3.18665 36115 ft 433 kts 157°
2026-05-05 08:05 47.83566 3.20408 35861 ft 433 kts 157°
2026-05-05 08:05 47.80790 3.22145 35611 ft 433 kts 157°
2026-05-05 08:05 47.77974 3.23905 35356 ft 434 kts 157°
2026-05-05 08:05 47.75171 3.25654 35103 ft 434 kts 157°
2026-05-05 08:06 47.72371 3.27399 34851 ft 435 kts 157°
2026-05-05 08:06 47.69579 3.29138 34599 ft 435 kts 157°
2026-05-05 08:06 47.66802 3.30865 34350 ft 436 kts 157°
2026-05-05 08:06 47.63992 3.32610 34097 ft 435 kts 157°
2026-05-05 08:07 47.61198 3.34343 33843 ft 428 kts 157°
2026-05-05 08:07 47.58490 3.36021 33597 ft 426 kts 157°
2026-05-05 08:07 47.55718 3.37736 33345 ft 426 kts 157°
2026-05-05 08:07 47.52059 3.39999 33012 ft 427 kts 157°
2026-05-05 08:08 47.50216 3.41138 32844 ft 427 kts 157°
2026-05-05 08:08 47.47499 3.42815 32597 ft 428 kts 157°
2026-05-05 08:08 47.44746 3.44512 32347 ft 428 kts 157°
2026-05-05 08:08 47.41987 3.46210 32097 ft 428 kts 157°
2026-05-05 08:09 47.39237 3.47901 31846 ft 426 kts 157°
2026-05-05 08:09 47.36549 3.49552 31600 ft 424 kts 157°
2026-05-05 08:09 47.33793 3.51242 31347 ft 423 kts 157°
2026-05-05 08:09 47.31115 3.52883 31100 ft 421 kts 157°
2026-05-05 08:10 47.28418 3.54533 30850 ft 419 kts 157°
2026-05-05 08:10 47.25717 3.56185 30599 ft 418 kts 157°
2026-05-05 08:10 47.23071 3.57801 30352 ft 416 kts 157°
2026-05-05 08:10 47.20398 3.59431 30101 ft 414 kts 157°
2026-05-05 08:11 47.17747 3.61047 29852 ft 413 kts 157°
2026-05-05 08:11 47.15109 3.62652 29603 ft 411 kts 157°
2026-05-05 08:11 47.12408 3.64294 29347 ft 409 kts 157°
2026-05-05 08:11 47.09764 3.65900 29095 ft 408 kts 158°
2026-05-05 08:12 47.07003 3.67575 28831 ft 406 kts 158°
2026-05-05 08:12 47.03447 3.69729 28490 ft 404 kts 158°
2026-05-05 08:12 47.01658 3.70811 28317 ft 403 kts 158°
2026-05-05 08:12 46.99057 3.72384 28065 ft 401 kts 158°
2026-05-05 08:13 46.96366 3.74134 27790 ft 399 kts 149°
2026-05-05 08:13 46.94138 3.76810 27521 ft 397 kts 130°
2026-05-05 08:13 46.92604 3.80467 27258 ft 396 kts 112°
2026-05-05 08:13 46.91581 3.84343 27034 ft 394 kts 110°
2026-05-05 08:14 46.90614 3.88143 27001 ft 394 kts 110°
2026-05-05 08:14 46.89639 3.91935 26998 ft 394 kts 111°
2026-05-05 08:14 46.88665 3.95676 26997 ft 394 kts 111°
2026-05-05 08:14 46.87346 4.00679 26996 ft 394 kts 111°
2026-05-05 08:15 46.86686 4.03171 26996 ft 394 kts 111°
2026-05-05 08:15 46.85682 4.06943 26996 ft 394 kts 111°
2026-05-05 08:15 46.84687 4.10675 26996 ft 394 kts 111°
2026-05-05 08:15 46.83682 4.14433 26996 ft 394 kts 111°
2026-05-05 08:16 46.82664 4.18233 26996 ft 394 kts 111°
2026-05-05 08:16 46.81672 4.21954 26996 ft 394 kts 110°
2026-05-05 08:16 46.80753 4.25896 26996 ft 394 kts 106°
2026-05-05 08:16 46.80019 4.29886 26826 ft 394 kts 102°
2026-05-05 08:17 46.79431 4.33843 26573 ft 392 kts 102°
2026-05-05 08:17 46.78857 4.37832 26316 ft 390 kts 101°
2026-05-05 08:17 46.78300 4.41693 26066 ft 388 kts 101°
2026-05-05 08:17 46.77737 4.45568 25814 ft 387 kts 102°
2026-05-05 08:18 46.77173 4.49435 25561 ft 385 kts 102°
2026-05-05 08:18 46.76601 4.53339 25306 ft 384 kts 102°
2026-05-05 08:18 46.75857 4.58396 24972 ft 382 kts 102°
2026-05-05 08:18 46.75487 4.60897 24807 ft 381 kts 102°
2026-05-05 08:19 46.74917 4.64754 24551 ft 379 kts 102°
2026-05-05 08:19 46.74358 4.68521 24299 ft 378 kts 102°
2026-05-05 08:19 46.73790 4.72339 24044 ft 376 kts 102°
2026-05-05 08:19 46.73224 4.76135 23788 ft 375 kts 102°
2026-05-05 08:20 46.72475 4.81142 23450 ft 373 kts 102°
2026-05-05 08:20 46.72087 4.83730 23274 ft 372 kts 102°
2026-05-05 08:20 46.71515 4.87542 23040 ft 370 kts 102°
2026-05-05 08:20 46.70962 4.91213 23001 ft 370 kts 102°
2026-05-05 08:21 46.70406 4.94900 22999 ft 370 kts 102°
2026-05-05 08:21 46.69849 4.98583 22997 ft 370 kts 102°
2026-05-05 08:21 46.69294 5.02238 22997 ft 370 kts 102°
2026-05-05 08:21 46.68735 5.05918 22997 ft 370 kts 102°
2026-05-05 08:22 46.68172 5.09612 22840 ft 370 kts 102°
2026-05-05 08:22 46.67615 5.13253 22589 ft 368 kts 102°
2026-05-05 08:22 46.67058 5.16893 22337 ft 366 kts 102°
2026-05-05 08:22 46.66331 5.21685 22005 ft 364 kts 102°
2026-05-05 08:23 46.65953 5.24204 21830 ft 364 kts 102°
2026-05-05 08:23 46.65412 5.27801 21578 ft 362 kts 102°
2026-05-05 08:23 46.64872 5.31381 21259 ft 358 kts 102°
2026-05-05 08:23 46.64341 5.34883 20818 ft 356 kts 102°
2026-05-05 08:24 46.63790 5.38509 20544 ft 355 kts 102°
2026-05-05 08:24 46.63261 5.41982 20296 ft 355 kts 102°
2026-05-05 08:24 46.62722 5.45512 20043 ft 354 kts 102°
2026-05-05 08:24 46.62192 5.48969 19794 ft 352 kts 102°
2026-05-05 08:25 46.61456 5.53721 19450 ft 350 kts 102°
2026-05-05 08:25 46.61094 5.56038 19282 ft 349 kts 102°
2026-05-05 08:25 46.60549 5.59525 19027 ft 348 kts 102°
2026-05-05 08:25 46.60001 5.63029 18771 ft 347 kts 102°
2026-05-05 08:26 46.59459 5.66481 18517 ft 345 kts 103°
2026-05-05 08:26 46.58906 5.70000 18257 ft 344 kts 103°
2026-05-05 08:26 46.58367 5.73417 18004 ft 343 kts 103°
2026-05-05 08:26 46.57643 5.77953 17666 ft 341 kts 105°
2026-05-05 08:27 46.56663 5.81164 17396 ft 339 kts 125°
2026-05-05 08:27 46.55641 5.82906 17229 ft 339 kts 137°
2026-05-05 08:27 46.53741 5.84992 16991 ft 338 kts 146°
2026-05-05 08:27 46.51801 5.86892 16709 ft 336 kts 146°
2026-05-05 08:28 46.49866 5.88787 16342 ft 335 kts 146°
2026-05-05 08:28 46.47944 5.90691 15940 ft 333 kts 146°
2026-05-05 08:28 46.45996 5.92633 15517 ft 332 kts 145°
2026-05-05 08:28 46.44086 5.94543 15092 ft 331 kts 145°
2026-05-05 08:29 46.41566 5.97064 14531 ft 329 kts 145°
2026-05-05 08:29 46.40320 5.98309 14250 ft 329 kts 145°
2026-05-05 08:29 46.38427 6.00201 13824 ft 328 kts 145°
2026-05-05 08:30 46.34420 6.03039 13177 ft 315 kts 179°
2026-05-05 08:30 46.32324 6.02441 12917 ft 307 kts 206°
2026-05-05 08:30 46.30151 5.99885 12415 ft 303 kts 227°
2026-05-05 08:30 46.29163 5.98362 12155 ft 302 kts 227°
2026-05-05 08:31 46.27182 5.95355 11640 ft 299 kts 226°
2026-05-05 08:31 46.26179 5.93865 11383 ft 298 kts 226°
2026-05-05 08:31 46.24663 5.91638 10995 ft 296 kts 225°
2026-05-05 08:31 46.22687 5.88754 10494 ft 293 kts 225°
2026-05-05 08:32 46.21691 5.87305 10241 ft 292 kts 225°
2026-05-05 08:32 46.20246 5.85206 9988 ft 285 kts 225°
2026-05-05 08:32 46.18830 5.83149 9734 ft 280 kts 225°
2026-05-05 08:32 46.17419 5.81100 9375 ft 278 kts 225°
2026-05-05 08:33 46.15943 5.78959 9004 ft 276 kts 225°
2026-05-05 08:33 46.14460 5.76810 8634 ft 274 kts 225°
2026-05-05 08:33 46.12972 5.74656 8263 ft 272 kts 225°
2026-05-05 08:33 46.11508 5.72566 8034 ft 263 kts 221°
2026-05-05 08:34 46.09828 5.71370 7901 ft 251 kts 184°
2026-05-05 08:34 46.08071 5.71837 7668 ft 244 kts 150°
2026-05-05 08:34 46.06753 5.73431 7375 ft 241 kts 134°
2026-05-05 08:34 46.05587 5.75185 7090 ft 239 kts 134°
2026-05-05 08:35 46.04445 5.76864 6995 ft 227 kts 133°
2026-05-05 08:35 46.03672 5.78783 6832 ft 218 kts 99°
2026-05-05 08:35 46.03776 5.80862 6687 ft 208 kts 68°
2026-05-05 08:35 46.04784 5.83138 6422 ft 198 kts 48°
2026-05-05 08:36 46.05414 5.84074 6232 ft 195 kts 44°
2026-05-05 08:36 46.06398 5.85409 5943 ft 192 kts 43°
2026-05-05 08:36 46.07662 5.87141 5576 ft 187 kts 44°
2026-05-05 08:36 46.08283 5.88019 5395 ft 184 kts 45°
2026-05-05 08:37 46.09469 5.89736 5050 ft 178 kts 45°
2026-05-05 08:37 46.10032 5.90563 4889 ft 175 kts 46°
2026-05-05 08:37 46.10872 5.91807 4674 ft 167 kts 46°
2026-05-05 08:37 46.11912 5.93352 4374 ft 158 kts 46°
2026-05-05 08:38 46.12420 5.94108 4228 ft 152 kts 46°
2026-05-05 08:38 46.13142 5.95180 4027 ft 146 kts 46°
2026-05-05 08:38 46.14038 5.96509 3789 ft 137 kts 46°
2026-05-05 08:38 46.14486 5.97172 3677 ft 137 kts 46°
2026-05-05 08:39 46.15146 5.98148 3509 ft 137 kts 46°
2026-05-05 08:39 46.15814 5.99135 3337 ft 137 kts 46°
2026-05-05 08:39 46.16487 6.00128 3159 ft 138 kts 45°
2026-05-05 08:39 46.17384 6.01451 2917 ft 140 kts 45°
2026-05-05 08:40 46.17842 6.02124 2791 ft 142 kts 45°
2026-05-05 08:40 46.18541 6.03153 2597 ft 144 kts 45°
2026-05-05 08:40 46.19254 6.04203 2400 ft 147 kts 45°
2026-05-05 08:40 46.19976 6.05264 2199 ft 149 kts 45°
2026-05-05 08:41 46.20948 6.06694 1927 ft 146 kts 45°
2026-05-05 08:41 46.21424 6.07394 1796 ft 144 kts 45°
2026-05-05 08:41 46.22130 6.08433 1602 ft 141 kts 45°
2026-05-05 08:41 46.22812 6.09439 1421 ft 139 kts 45°
2026-05-05 08:42 46.23413 6.10321 1380 ft 89 kts 45°
2026-05-05 08:42 46.23598 6.10728 1378 ft 17 kts 169°
2026-05-05 08:42 46.23531 6.10703 1379 ft 9 kts 198°
2026-05-05 08:42 46.23523 6.10700 1379 ft 0 kts 195°
2026-05-05 08:43 46.23523 6.10699 1379 ft 0 kts 195°
2026-05-05 08:43 46.23522 6.10699 1380 ft 0 kts 195°
2026-05-05 08:43 46.23506 6.10692 1380 ft 5 kts 195°
2026-05-05 08:44 46.23465 6.10679 1381 ft 12 kts 184°
2026-05-05 08:44 46.23389 6.10744 1384 ft 12 kts 133°
2026-05-05 08:44 46.23333 6.10799 1386 ft 9 kts 169°
2026-05-05 08:44 46.23273 6.10769 1388 ft 9 kts 205°
2026-05-05 08:45 46.23205 6.10712 1389 ft 8 kts 218°
2026-05-05 08:45 46.23175 6.10670 1390 ft 9 kts 225°
2026-05-05 08:45 46.23126 6.10595 1389 ft 11 kts 226°
2026-05-05 08:45 46.23070 6.10590 1390 ft 4 kts 135°
2026-05-05 08:46 46.23056 6.10610 1391 ft 3 kts 135°
2026-05-05 08:46 46.23054 6.10613 1391 ft 0 kts 135°
2026-05-05 08:46 46.23053 6.10614 1391 ft 0 kts 136°
2026-05-05 08:46 46.23053 6.10613 1391 ft 0 kts 136°
2026-05-05 08:49 46.23054 6.10613 1391 ft 0 kts 136°